Year,Month,Day,Hour,Minute,Value (Times are PST for temperature in C)
2016,09,21,07,58,7.60
2016,09,21,07,59,7.60
2016,09,21,08,00,7.60
2016,09,21,08,01,7.70
2016,09,21,08,02,7.70
2016,09,21,08,03,7.80
2016,09,21,08,04,7.90
2016,09,21,08,05,8.00
2016,09,21,08,06,8.00
2016,09,21,08,07,8.10
2016,09,21,08,08,8.20
2016,09,21,08,09,8.30
2016,09,21,08,10,8.40
2016,09,21,08,11,8.40
2016,09,21,08,12,8.50
2016,09,21,08,13,8.60
2016,09,21,08,14,8.60
2016,09,21,08,15,8.70
2016,09,21,08,16,8.80
2016,09,21,08,17,8.80
2016,09,21,08,18,8.90
2016,09,21,08,19,9.00
2016,09,21,08,20,9.10
2016,09,21,08,21,9.10
2016,09,21,08,22,9.20
2016,09,21,08,23,9.30
2016,09,21,08,24,9.40
2016,09,21,08,25,9.50
2016,09,21,08,26,9.60
2016,09,21,08,27,9.60
2016,09,21,08,28,9.70
2016,09,21,08,29,9.80
2016,09,21,08,30,9.90
2016,09,21,08,31,10.00
2016,09,21,08,32,10.10
2016,09,21,08,33,10.20
2016,09,21,08,34,10.30
2016,09,21,08,35,10.40
2016,09,21,08,36,10.50
2016,09,21,08,37,10.70
2016,09,21,08,38,10.80
2016,09,21,08,39,10.90
2016,09,21,08,40,11.10
2016,09,21,08,41,11.20
2016,09,21,08,42,11.30
2016,09,21,08,43,11.40
2016,09,21,08,44,11.50
2016,09,21,08,45,11.60
2016,09,21,08,46,11.80
2016,09,21,08,47,11.80
2016,09,21,08,48,12.00
2016,09,21,08,49,12.10
2016,09,21,08,50,12.10
2016,09,21,08,51,12.20
2016,09,21,08,52,12.30
2016,09,21,08,53,12.40
2016,09,21,08,54,12.40
2016,09,21,08,55,12.50
2016,09,21,08,56,12.60
2016,09,21,08,57,12.60
2016,09,21,08,58,12.70
2016,09,21,08,59,12.80
2016,09,21,09,00,12.80
2016,09,21,09,01,12.80
2016,09,21,09,02,12.90
2016,09,21,09,03,12.90
2016,09,21,09,04,12.90
2016,09,21,09,05,12.90
2016,09,21,09,06,12.90
2016,09,21,09,07,12.90
2016,09,21,09,08,12.90
2016,09,21,09,09,12.90
2016,09,21,09,10,12.90
2016,09,21,09,11,13.00
2016,09,21,09,12,13.00
2016,09,21,09,13,13.10
2016,09,21,09,14,13.10
2016,09,21,09,15,13.20
2016,09,21,09,16,13.30
2016,09,21,09,17,13.30
2016,09,21,09,18,13.50
2016,09,21,09,19,13.60
2016,09,21,09,20,13.70
2016,09,21,09,21,13.80
2016,09,21,09,22,13.90
2016,09,21,09,23,14.00
2016,09,21,09,24,14.20
2016,09,21,09,25,14.30
2016,09,21,09,26,14.40
2016,09,21,09,27,14.50
2016,09,21,09,28,14.60
2016,09,21,09,29,14.70
2016,09,21,09,30,14.80
2016,09,21,09,31,14.80
2016,09,21,09,32,14.90
2016,09,21,09,33,15.00
2016,09,21,09,34,15.10
2016,09,21,09,35,15.20
2016,09,21,09,36,15.40
2016,09,21,09,37,15.60
2016,09,21,09,38,15.80
2016,09,21,09,39,16.00
2016,09,21,09,40,16.30
2016,09,21,09,41,16.50
2016,09,21,09,42,16.80
2016,09,21,09,43,17.00
2016,09,21,09,44,17.30
2016,09,21,09,45,17.60
2016,09,21,09,46,17.80
2016,09,21,09,47,18.10
2016,09,21,09,48,18.30
2016,09,21,09,49,18.60
2016,09,21,09,50,18.80
2016,09,21,09,51,19.10
2016,09,21,09,52,19.30
2016,09,21,09,53,19.50
2016,09,21,09,54,19.60
2016,09,21,09,55,19.80
2016,09,21,09,56,20.00
2016,09,21,09,57,20.20
2016,09,21,09,58,20.30
2016,09,21,09,59,20.40
2016,09,21,10,00,20.50
2016,09,21,10,01,20.60
2016,09,21,10,02,20.70
2016,09,21,10,03,20.80
2016,09,21,10,04,20.90
2016,09,21,10,05,21.00
2016,09,21,10,06,21.10
2016,09,21,10,07,21.20
2016,09,21,10,08,21.30
2016,09,21,10,09,21.50
2016,09,21,10,10,21.60
2016,09,21,10,11,21.70
2016,09,21,10,12,21.80
2016,09,21,10,13,21.80
2016,09,21,10,14,21.90
2016,09,21,10,15,21.90
2016,09,21,10,16,21.90
2016,09,21,10,17,22.00
2016,09,21,10,18,22.00
2016,09,21,10,19,22.10
2016,09,21,10,20,22.10
2016,09,21,10,21,22.10
2016,09,21,10,22,22.20
2016,09,21,10,23,22.20
2016,09,21,10,24,22.30
2016,09,21,10,25,22.30
2016,09,21,10,26,22.40
2016,09,21,10,27,22.50
2016,09,21,10,28,22.60
2016,09,21,10,29,22.60
2016,09,21,10,30,22.60
2016,09,21,10,31,22.70
2016,09,21,10,32,22.80
2016,09,21,10,33,22.90
2016,09,21,10,34,22.90
2016,09,21,10,35,23.00
2016,09,21,10,36,23.10
2016,09,21,10,37,23.20
2016,09,21,10,38,23.30
2016,09,21,10,39,23.40
2016,09,21,10,40,23.40
2016,09,21,10,41,23.40
2016,09,21,10,42,23.50
2016,09,21,10,43,23.50
2016,09,21,10,44,23.60
2016,09,21,10,45,23.60
2016,09,21,10,46,23.60
2016,09,21,10,47,23.70
2016,09,21,10,48,23.70
2016,09,21,10,49,23.70
2016,09,21,10,50,23.80
2016,09,21,10,51,23.90
2016,09,21,10,52,23.90
2016,09,21,10,53,24.00
2016,09,21,10,54,24.00
2016,09,21,10,55,24.00
2016,09,21,10,56,24.10
2016,09,21,10,57,24.20
2016,09,21,10,58,24.20
2016,09,21,10,59,24.20
2016,09,21,11,00,24.30
2016,09,21,11,01,24.40
2016,09,21,11,02,24.50
2016,09,21,11,03,24.60
2016,09,21,11,04,24.70
2016,09,21,11,05,24.80
2016,09,21,11,06,24.90
2016,09,21,11,07,25.10
2016,09,21,11,08,25.20
2016,09,21,11,09,25.20
2016,09,21,11,10,25.30
2016,09,21,11,11,25.40
2016,09,21,11,12,25.50
2016,09,21,11,13,25.50
2016,09,21,11,14,25.50
2016,09,21,11,15,25.50
2016,09,21,11,16,25.40
2016,09,21,11,17,25.40
2016,09,21,11,18,25.30
2016,09,21,11,19,25.20
2016,09,21,11,20,25.10
2016,09,21,11,21,25.00
2016,09,21,11,22,25.00
2016,09,21,11,23,25.00
2016,09,21,11,24,25.10
2016,09,21,11,25,25.20
2016,09,21,11,26,25.30
2016,09,21,11,27,25.30
2016,09,21,11,28,25.40
2016,09,21,11,29,25.40
2016,09,21,11,30,25.50
2016,09,21,11,31,25.50
2016,09,21,11,32,25.60
2016,09,21,11,33,25.70
2016,09,21,11,34,25.60
2016,09,21,11,35,25.40
2016,09,21,11,36,25.20
2016,09,21,11,37,25.20
2016,09,21,11,38,25.20
2016,09,21,11,39,25.20
2016,09,21,11,40,25.20
2016,09,21,11,41,25.20
2016,09,21,11,42,25.30
2016,09,21,11,43,25.30
2016,09,21,11,44,25.40
2016,09,21,11,45,25.50
2016,09,21,11,46,25.60
2016,09,21,11,47,25.60
2016,09,21,11,48,25.60
2016,09,21,11,49,25.60
2016,09,21,11,50,25.60
2016,09,21,11,51,25.60
2016,09,21,11,52,25.60
2016,09,21,11,53,25.60
2016,09,21,11,54,25.40
2016,09,21,11,55,25.20
2016,09,21,11,56,25.10
2016,09,21,11,57,25.00
2016,09,21,11,58,24.90
2016,09,21,11,59,24.90
2016,09,21,12,00,24.90
2016,09,21,12,01,24.90
2016,09,21,12,02,24.90
2016,09,21,12,03,24.80
2016,09,21,12,04,24.80
2016,09,21,12,05,24.80
2016,09,21,12,06,24.90
2016,09,21,12,07,24.90
2016,09,21,12,08,25.00
2016,09,21,12,09,25.10
2016,09,21,12,10,25.20
2016,09,21,12,11,25.30
2016,09,21,12,12,25.40
2016,09,21,12,13,25.60
2016,09,21,12,14,25.70
2016,09,21,12,15,25.80
2016,09,21,12,16,25.90
2016,09,21,12,17,26.00
2016,09,21,12,18,26.10
2016,09,21,12,19,26.20
2016,09,21,12,20,26.20
2016,09,21,12,21,26.20
2016,09,21,12,22,26.00
2016,09,21,12,23,25.90
2016,09,21,12,24,25.80
2016,09,21,12,25,25.80
2016,09,21,12,26,25.70
2016,09,21,12,27,25.70
2016,09,21,12,28,25.60
2016,09,21,12,29,25.50
2016,09,21,12,30,25.40
2016,09,21,12,31,25.20
2016,09,21,12,32,25.10
2016,09,21,12,33,25.00
2016,09,21,12,34,24.90
2016,09,21,12,35,24.80
2016,09,21,12,36,24.70
2016,09,21,12,37,24.60
2016,09,21,12,38,24.50
2016,09,21,12,39,24.40
2016,09,21,12,40,24.40
2016,09,21,12,41,24.30
2016,09,21,12,42,24.20
2016,09,21,12,43,24.10
2016,09,21,12,44,24.00
2016,09,21,12,45,23.90
2016,09,21,12,46,23.90
2016,09,21,12,47,23.80
2016,09,21,12,48,23.70
2016,09,21,12,49,23.60
2016,09,21,12,50,23.60
2016,09,21,12,51,23.50
2016,09,21,12,52,23.40
2016,09,21,12,53,23.30
2016,09,21,12,54,23.20
2016,09,21,12,55,23.20
2016,09,21,12,56,23.20
2016,09,21,12,57,23.20
2016,09,21,12,58,23.20
2016,09,21,12,59,23.10
2016,09,21,13,00,23.10
2016,09,21,13,01,23.00
2016,09,21,13,02,23.00
2016,09,21,13,03,22.90
2016,09,21,13,04,22.90
2016,09,21,13,05,22.90
2016,09,21,13,06,22.90
2016,09,21,13,07,22.90
2016,09,21,13,08,22.90
2016,09,21,13,09,22.90
2016,09,21,13,10,22.90
2016,09,21,13,11,22.80
2016,09,21,13,12,22.80
2016,09,21,13,13,22.70
2016,09,21,13,14,22.70
2016,09,21,13,15,22.60
2016,09,21,13,16,22.60
2016,09,21,13,17,22.50
2016,09,21,13,18,22.40
2016,09,21,13,19,22.40
2016,09,21,13,20,22.40
2016,09,21,13,21,22.40
2016,09,21,13,22,22.50
2016,09,21,13,23,22.50
2016,09,21,13,24,22.50
2016,09,21,13,25,22.50
2016,09,21,13,26,22.50
2016,09,21,13,27,22.50
2016,09,21,13,28,22.60
2016,09,21,13,29,22.60
2016,09,21,13,30,22.60
2016,09,21,13,31,22.70
2016,09,21,13,32,22.70
2016,09,21,13,33,22.80
2016,09,21,13,34,22.80
2016,09,21,13,35,22.80
2016,09,21,13,36,22.80
2016,09,21,13,37,22.80
2016,09,21,13,38,22.80
2016,09,21,13,39,22.80
2016,09,21,13,40,22.90
2016,09,21,13,41,22.90
2016,09,21,13,42,22.90
2016,09,21,13,43,22.90
2016,09,21,13,44,22.90
2016,09,21,13,45,22.90
2016,09,21,13,46,22.90
2016,09,21,13,47,22.90
2016,09,21,13,48,22.80
2016,09,21,13,49,22.80
2016,09,21,13,50,22.80
2016,09,21,13,51,22.90
2016,09,21,13,52,22.90
2016,09,21,13,53,22.90
2016,09,21,13,54,23.00
2016,09,21,13,55,23.00
2016,09,21,13,56,23.10
2016,09,21,13,57,23.10
2016,09,21,13,58,23.10
2016,09,21,13,59,23.20
2016,09,21,14,00,23.20
2016,09,21,14,01,23.20
2016,09,21,14,02,23.20
2016,09,21,14,03,23.30
2016,09,21,14,04,23.30
2016,09,21,14,05,23.30
2016,09,21,14,06,23.30
2016,09,21,14,07,23.40
2016,09,21,14,08,23.40
2016,09,21,14,09,23.40
2016,09,21,14,10,23.40
2016,09,21,14,11,23.50
2016,09,21,14,12,23.50
2016,09,21,14,13,23.50
2016,09,21,14,14,23.50
2016,09,21,14,15,23.50
2016,09,21,14,16,23.60
2016,09,21,14,17,23.60
2016,09,21,14,18,23.60
2016,09,21,14,19,23.60
2016,09,21,14,20,23.60
2016,09,21,14,21,23.60
2016,09,21,14,22,23.60
2016,09,21,14,23,23.50
2016,09,21,14,24,23.50
2016,09,21,14,25,23.40
2016,09,21,14,26,23.40
2016,09,21,14,27,23.30
2016,09,21,14,28,23.30
2016,09,21,14,29,23.30
2016,09,21,14,30,23.20
2016,09,21,14,31,23.20
2016,09,21,14,32,23.20
2016,09,21,14,33,23.10
2016,09,21,14,34,23.10
2016,09,21,14,35,23.10
2016,09,21,14,36,23.10
2016,09,21,14,37,23.20
2016,09,21,14,38,23.20
2016,09,21,14,39,23.20
2016,09,21,14,40,23.20
2016,09,21,14,41,23.30
2016,09,21,14,42,23.30
2016,09,21,14,43,23.30
2016,09,21,14,44,23.40
2016,09,21,14,45,23.40
2016,09,21,14,46,23.40
2016,09,21,14,47,23.40
2016,09,21,14,48,23.50
2016,09,21,14,49,23.50
2016,09,21,14,50,23.60
2016,09,21,14,51,23.60
2016,09,21,14,52,23.60
2016,09,21,14,53,23.60
2016,09,21,14,54,23.60
2016,09,21,14,55,23.60
2016,09,21,14,56,23.50
2016,09,21,14,57,23.50
2016,09,21,14,58,23.50
2016,09,21,14,59,23.40
2016,09,21,15,00,23.40
2016,09,21,15,01,23.40
2016,09,21,15,02,23.40
2016,09,21,15,03,23.40
2016,09,21,15,04,23.40
2016,09,21,15,05,23.50
2016,09,21,15,06,23.50
2016,09,21,15,07,23.50
2016,09,21,15,08,23.50
2016,09,21,15,09,23.50
2016,09,21,15,10,23.50
2016,09,21,15,11,23.50
2016,09,21,15,12,23.50
2016,09,21,15,13,23.50
2016,09,21,15,14,23.50
2016,09,21,15,15,23.50
2016,09,21,15,16,23.50
2016,09,21,15,17,23.50
2016,09,21,15,18,23.60
2016,09,21,15,19,23.60
2016,09,21,15,20,23.60
2016,09,21,15,21,23.60
2016,09,21,15,22,23.60
2016,09,21,15,23,23.60
2016,09,21,15,24,23.60
2016,09,21,15,25,23.60
2016,09,21,15,26,23.60
2016,09,21,15,27,23.60
2016,09,21,15,28,23.60
2016,09,21,15,29,23.50
2016,09,21,15,30,23.50
2016,09,21,15,31,23.40
2016,09,21,15,32,23.40
2016,09,21,15,33,23.30
2016,09,21,15,34,23.30
2016,09,21,15,35,23.20
2016,09,21,15,36,23.10
2016,09,21,15,37,22.90
2016,09,21,15,38,22.80
2016,09,21,15,39,22.70
2016,09,21,15,40,22.50
2016,09,21,15,41,22.50
2016,09,21,15,42,22.40
2016,09,21,15,43,22.40
2016,09,21,15,44,22.40
2016,09,21,15,45,22.30
2016,09,21,15,46,22.30
2016,09,21,15,47,22.30
2016,09,21,15,48,22.40
2016,09,21,15,49,22.40
2016,09,21,15,50,22.40
2016,09,21,15,51,22.40
2016,09,21,15,52,22.40
2016,09,21,15,53,22.30
2016,09,21,15,54,22.30
2016,09,21,15,55,22.30
2016,09,21,15,56,22.30
2016,09,21,15,57,22.30
2016,09,21,15,58,22.30
2016,09,21,15,59,22.30
2016,09,21,16,00,22.30
2016,09,21,16,01,22.20
2016,09,21,16,02,22.10
2016,09,21,16,03,22.10
2016,09,21,16,04,22.10
2016,09,21,16,05,22.10
2016,09,21,16,06,22.10
2016,09,21,16,07,22.10
2016,09,21,16,08,22.10
2016,09,21,16,09,22.10
2016,09,21,16,10,22.10
2016,09,21,16,11,22.10
2016,09,21,16,12,22.00
2016,09,21,16,13,22.00
2016,09,21,16,14,22.00
2016,09,21,16,15,21.90
2016,09,21,16,16,21.90
2016,09,21,16,17,21.90
2016,09,21,16,18,21.80
2016,09,21,16,19,21.80
2016,09,21,16,20,21.70
2016,09,21,16,21,21.70
2016,09,21,16,22,21.70
2016,09,21,16,23,21.70
2016,09,21,16,24,21.60
2016,09,21,16,25,21.60
2016,09,21,16,26,21.60
2016,09,21,16,27,21.60
2016,09,21,16,28,21.60
2016,09,21,16,29,21.60
2016,09,21,16,30,21.60
2016,09,21,16,31,21.60
2016,09,21,16,32,21.60
2016,09,21,16,33,21.60
2016,09,21,16,34,21.60
2016,09,21,16,35,21.50
2016,09,21,16,36,21.50
2016,09,21,16,37,21.50
2016,09,21,16,38,21.50
2016,09,21,16,39,21.40
2016,09,21,16,40,21.40
2016,09,21,16,41,21.40
2016,09,21,16,42,21.40
2016,09,21,16,43,21.30
2016,09,21,16,44,21.30
2016,09,21,16,45,21.20
2016,09,21,16,46,21.20
2016,09,21,16,47,21.10
2016,09,21,16,48,21.00
2016,09,21,16,49,21.00
2016,09,21,16,50,20.90
2016,09,21,16,51,20.90
2016,09,21,16,52,20.90
2016,09,21,16,53,20.80
2016,09,21,16,54,20.80
2016,09,21,16,55,20.70
2016,09,21,16,56,20.70
2016,09,21,16,57,20.60
2016,09,21,16,58,20.60
2016,09,21,16,59,20.50
2016,09,21,17,00,20.50
2016,09,21,17,01,20.50
2016,09,21,17,02,20.40
2016,09,21,17,03,20.40
2016,09,21,17,04,20.30
2016,09,21,17,05,20.30
2016,09,21,17,06,20.30
2016,09,21,17,07,20.20
2016,09,21,17,08,20.20
2016,09,21,17,09,20.20
2016,09,21,17,10,20.20
2016,09,21,17,11,20.10
2016,09,21,17,12,20.10
2016,09,21,17,13,20.10
2016,09,21,17,14,20.00
2016,09,21,17,15,20.00
2016,09,21,17,16,19.90
2016,09,21,17,17,19.90
2016,09,21,17,18,19.90
2016,09,21,17,19,19.90
2016,09,21,17,20,19.80
2016,09,21,17,21,19.80
2016,09,21,17,22,19.80
2016,09,21,17,23,19.80
2016,09,21,17,24,19.80
2016,09,21,17,25,19.70
2016,09,21,17,26,19.70
2016,09,21,17,27,19.70
2016,09,21,17,28,19.70
2016,09,21,17,29,19.60
2016,09,21,17,30,19.60
2016,09,21,17,31,19.60
2016,09,21,17,32,19.60
2016,09,21,17,33,19.50
2016,09,21,17,34,19.50
2016,09,21,17,35,19.50
2016,09,21,17,36,19.50
2016,09,21,17,37,19.40
2016,09,21,17,38,19.40
2016,09,21,17,39,19.40
2016,09,21,17,40,19.40
2016,09,21,17,41,19.30
2016,09,21,17,42,19.30
2016,09,21,17,43,19.30
2016,09,21,17,44,19.30
2016,09,21,17,45,19.20
2016,09,21,17,46,19.20
2016,09,21,17,47,19.20
2016,09,21,17,48,19.10
2016,09,21,17,49,19.10
2016,09,21,17,50,19.10
2016,09,21,17,51,19.00
2016,09,21,17,52,19.00
2016,09,21,17,53,18.90
2016,09,21,17,54,18.90
2016,09,21,17,55,18.90
2016,09,21,17,56,18.80
2016,09,21,17,57,18.80
2016,09,21,17,58,18.80
2016,09,21,17,59,18.80
2016,09,21,18,00,18.70
2016,09,21,18,01,18.70
2016,09,21,18,02,18.70
2016,09,21,18,03,18.70
2016,09,21,18,04,18.60
2016,09,21,18,05,18.60
2016,09,21,18,06,18.60
2016,09,21,18,07,18.60
2016,09,21,18,08,18.60
2016,09,21,18,09,18.50
2016,09,21,18,10,18.50
2016,09,21,18,11,18.50
2016,09,21,18,12,18.40
2016,09,21,18,13,18.40
2016,09,21,18,14,18.40
2016,09,21,18,15,18.30
2016,09,21,18,16,18.30
2016,09,21,18,17,18.30
2016,09,21,18,18,18.20
2016,09,21,18,19,18.20
2016,09,21,18,20,18.20
2016,09,21,18,21,18.10
2016,09,21,18,22,18.10
2016,09,21,18,23,18.00
2016,09,21,18,24,17.90
2016,09,21,18,25,17.90
2016,09,21,18,26,17.80
2016,09,21,18,27,17.80
2016,09,21,18,28,17.70
2016,09,21,18,29,17.70
2016,09,21,18,30,17.60
2016,09,21,18,31,17.60
2016,09,21,18,32,17.50
2016,09,21,18,33,17.50
2016,09,21,18,34,17.40
2016,09,21,18,35,17.40
2016,09,21,18,36,17.40
2016,09,21,18,37,17.30
2016,09,21,18,38,17.30
2016,09,21,18,39,17.30
2016,09,21,18,40,17.30
2016,09,21,18,41,17.30
2016,09,21,18,42,17.20
2016,09,21,18,43,17.20
2016,09,21,18,44,17.20
2016,09,21,18,45,17.20
2016,09,21,18,46,17.10
2016,09,21,18,47,17.10
2016,09,21,18,48,17.10
2016,09,21,18,49,17.00
2016,09,21,18,50,17.00
2016,09,21,18,51,16.90
2016,09,21,18,52,16.90
2016,09,21,18,53,16.80
2016,09,21,18,54,16.80
2016,09,21,18,55,16.70
2016,09,21,18,56,16.70
2016,09,21,18,57,16.60
2016,09,21,18,58,16.60
2016,09,21,18,59,16.50
2016,09,21,19,00,16.40
2016,09,21,19,01,16.40
2016,09,21,19,02,16.30
2016,09,21,19,03,16.30
2016,09,21,19,04,16.20
2016,09,21,19,05,16.10
2016,09,21,19,06,16.10
2016,09,21,19,07,16.00
2016,09,21,19,08,16.00
2016,09,21,19,09,15.90
2016,09,21,19,10,15.80
2016,09,21,19,11,15.80
2016,09,21,19,12,15.80
2016,09,21,19,13,15.70
2016,09,21,19,14,15.60
2016,09,21,19,15,15.60
2016,09,21,19,16,15.50
2016,09,21,19,17,15.50
2016,09,21,19,18,15.40
2016,09,21,19,19,15.30
2016,09,21,19,20,15.30
2016,09,21,19,21,15.20
2016,09,21,19,22,15.20
2016,09,21,19,23,15.10
2016,09,21,19,24,15.10
2016,09,21,19,25,15.00
2016,09,21,19,26,14.90
2016,09,21,19,27,14.90
2016,09,21,19,28,14.80
2016,09,21,19,29,14.80
2016,09,21,19,30,14.70
2016,09,21,19,31,14.70
2016,09,21,19,32,14.70
2016,09,21,19,33,14.60
2016,09,21,19,34,14.60
2016,09,21,19,35,14.60
2016,09,21,19,36,14.60
2016,09,21,19,37,14.70
2016,09,21,19,38,14.70
2016,09,21,19,39,14.70
2016,09,21,19,40,14.70
2016,09,21,19,41,14.70
2016,09,21,19,42,14.70
2016,09,21,19,43,14.70
2016,09,21,19,44,14.70
2016,09,21,19,45,14.60
2016,09,21,19,46,14.60
2016,09,21,19,47,14.60
2016,09,21,19,48,14.50
2016,09,21,19,49,14.40
2016,09,21,19,50,14.40
2016,09,21,19,51,14.40
2016,09,21,19,52,14.30
2016,09,21,19,53,14.30
2016,09,21,19,54,14.20
2016,09,21,19,55,14.10
2016,09,21,19,56,14.10
2016,09,21,19,57,14.00
2016,09,21,19,58,13.90
2016,09,21,19,59,13.90
2016,09,21,20,00,13.80
2016,09,21,20,01,13.80
2016,09,21,20,02,13.70
2016,09,21,20,03,13.70
2016,09,21,20,04,13.70
2016,09,21,20,05,13.60
2016,09,21,20,06,13.50
2016,09,21,20,07,13.50
2016,09,21,20,08,13.50
2016,09,21,20,09,13.40
2016,09,21,20,10,13.40
2016,09,21,20,11,13.30
2016,09,21,20,12,13.30
2016,09,21,20,13,13.20
2016,09,21,20,14,13.20
2016,09,21,20,15,13.10
2016,09,21,20,16,13.10
2016,09,21,20,17,13.00
2016,09,21,20,18,13.00
2016,09,21,20,19,12.90
2016,09,21,20,20,12.90
2016,09,21,20,21,12.80
2016,09,21,20,22,12.80
2016,09,21,20,23,12.70
2016,09,21,20,24,12.70
2016,09,21,20,25,12.60
2016,09,21,20,26,12.50
2016,09,21,20,27,12.50
2016,09,21,20,28,12.40
2016,09,21,20,29,12.40
2016,09,21,20,30,12.30
2016,09,21,20,31,12.20
2016,09,21,20,32,12.20
2016,09,21,20,33,12.20
2016,09,21,20,34,12.10
2016,09,21,20,35,12.10
2016,09,21,20,36,12.00
2016,09,21,20,37,12.00
2016,09,21,20,38,11.90
2016,09,21,20,39,11.90
2016,09,21,20,40,11.80
2016,09,21,20,41,11.80
2016,09,21,20,42,11.70
2016,09,21,20,43,11.70
2016,09,21,20,44,11.60
2016,09,21,20,45,11.60
2016,09,21,20,46,11.60
2016,09,21,20,47,11.50
2016,09,21,20,48,11.50
2016,09,21,20,49,11.40
2016,09,21,20,50,11.40
2016,09,21,20,51,11.40
2016,09,21,20,52,11.40
2016,09,21,20,53,11.40
2016,09,21,20,54,11.40
2016,09,21,20,55,11.30
2016,09,21,20,56,11.30
2016,09,21,20,57,11.30
2016,09,21,20,58,11.30
2016,09,21,20,59,11.30
2016,09,21,21,00,11.20
2016,09,21,21,01,11.20
2016,09,21,21,02,11.20
2016,09,21,21,03,11.20
2016,09,21,21,04,11.10
2016,09,21,21,05,11.10
2016,09,21,21,06,11.10
2016,09,21,21,07,11.10
2016,09,21,21,08,11.10
2016,09,21,21,09,11.00
2016,09,21,21,10,11.00
2016,09,21,21,11,11.00
2016,09,21,21,12,10.90
2016,09,21,21,13,10.90
2016,09,21,21,14,10.90
2016,09,21,21,15,10.80
2016,09,21,21,16,10.80
2016,09,21,21,17,10.80
2016,09,21,21,18,10.70
2016,09,21,21,19,10.70
2016,09,21,21,20,10.60
2016,09,21,21,21,10.60
2016,09,21,21,22,10.60
2016,09,21,21,23,10.50
2016,09,21,21,24,10.50
2016,09,21,21,25,10.40
2016,09,21,21,26,10.40
2016,09,21,21,27,10.30
2016,09,21,21,28,10.30
2016,09,21,21,29,10.30
2016,09,21,21,30,10.20
2016,09,21,21,31,10.20
2016,09,21,21,32,10.20
2016,09,21,21,33,10.20
2016,09,21,21,34,10.20
2016,09,21,21,35,10.10
2016,09,21,21,36,10.10
2016,09,21,21,37,10.10
2016,09,21,21,38,10.00
2016,09,21,21,39,10.00
2016,09,21,21,40,9.90
2016,09,21,21,41,9.90
2016,09,21,21,42,9.90
2016,09,21,21,43,9.80
2016,09,21,21,44,9.80
2016,09,21,21,45,9.80
2016,09,21,21,46,9.70
2016,09,21,21,47,9.70
2016,09,21,21,48,9.70
2016,09,21,21,49,9.70
2016,09,21,21,50,9.70
2016,09,21,21,51,9.70
2016,09,21,21,52,9.70
2016,09,21,21,53,9.60
2016,09,21,21,54,9.60
2016,09,21,21,55,9.60
2016,09,21,21,56,9.60
2016,09,21,21,57,9.60
2016,09,21,21,58,9.60
2016,09,21,21,59,9.60
2016,09,21,22,00,9.60
2016,09,21,22,01,9.60
2016,09,21,22,02,9.60
2016,09,21,22,03,9.60
2016,09,21,22,04,9.60
2016,09,21,22,05,9.60
2016,09,21,22,06,9.60
2016,09,21,22,07,9.60
2016,09,21,22,08,9.60
